[[{"header":{"parameterUnit":"m.s-1","parameterCategory":1,"la1":30.2991,"la2":30.254,"lo1":-89.0895,"lo2":-89.0444,"dy":0.0017,"dx":0.0017,"nx":28,"ny":28,"refTime":"2025-02-23T03:00:00:Z","depth":0,"parameterNumber":2,"parameterNumberName":"U-component_of_WINDS"},"data":[0,0,0,0,0,0,0,0,0,0,0,0,0,0,0,0,0,0,0,0,0,0,0,0,0,0,0,0,0,0,0,0,0,0,0,0,0,0,0,0,0,0,0,0,0,0,0,0,0,0,0,0,0,0,0,0,0,0,-0.2378,-0.2377,0,-0.235,-0.2349,-0.2349,-0.2317,-0.2316,-0.2316,-0.2315,-0.2289,-0.2289,-0.2289,0,0,0,0,0,0,0,0,0,0,0,0,0,-0.2404,-0.2403,-0.2378,-0.2377,-0.2377,-0.235,-0.2349,-0.2349,-0.2317,-0.2316,-0.2316,-0.2315,-0.2289,-0.2289,-0.2289,0,0,0,0,0,0,0,0,0,0,0,0,0,-0.2386,-0.2403,-0.2378,-0.2357,-0.2355,-0.235,-0.2349,-0.2349,-0.2317,-0.2316,-0.2316,-0.2315,-0.229,-0.2289,-0.2289,-0.2302,0,0,-0.2288,-0.2288,0,0,0,0,0,0,0,0,-0.2387,-0.2385,-0.2361,-0.2359,-0.2357,-0.2336,-0.2349,-0.2333,-0.2317,-0.2332,-0.2315,-0.2314,-0.2306,-0.2304,-0.23,-0.23,-0.2299,-0.2288,-0.2288,-0.2287,-0.2287,0,0,0,0,0,0,0,-0.2388,-0.2386,-0.2367,-0.236,-0.2358,-0.235,-0.2347,-0.2346,-0.2323,-0.233,-0.2328,-0.2325,-0.2304,-0.2301,-0.23,-0.2299,-0.2288,-0.2287,-0.2287,-0.2287,-0.2307,-0.2308,0,0,0,0,0,0,-0.2392,-0.2387,-0.2368,-0.2366,-0.237,-0.235,-0.2347,-0.2343,-0.2323,-0.2319,-0.2326,-0.2324,-0.2302,-0.23,-0.2299,-0.2312,-0.2287,-0.2287,-0.2287,-0.2306,-0.2307,-0.2308,0,0,0,0,0,0,-0.2393,-0.2391,-0.2369,-0.2376,-0.2372,-0.2351,-0.2347,-0.2343,-0.234,-0.232,-0.2316,-0.2326,-0.2301,-0.2299,-0.2301,-0.231,-0.2287,-0.2287,-0.2306,-0.2307,-0.2308,-0.2339,0,0,0,0,0,0,-0.2394,-0.2391,-0.2396,-0.2376,-0.2372,-0.2371,-0.2348,-0.2343,-0.2339,-0.2336,-0.2319,-0.2316,-0.23,-0.2301,-0.23,-0.231,-0.2286,-0.2305,-0.2306,-0.2307,-0.2337,-0.2341,-0.2344,0,0,0,0,0,-0.2395,-0.2406,-0.2396,-0.2394,-0.2377,-0.2372,-0.2369,-0.2351,-0.234,-0.2344,-0.2331,-0.2316,-0.2309,-0.2302,-0.23,-0.231,-0.2304,-0.2306,-0.2307,-0.2335,-0.234,-0.2344,0,0,0,0,0,0,-0.2429,-0.2404,-0.2392,-0.2397,-0.2387,-0.2366,-0.2371,-0.2357,-0.235,-0.2348,-0.2326,-0.2322,-0.2327,-0.2318,-0.231,-0.2321,-0.2304,-0.2306,-0.2326,-0.2331,-0.2334,-0.2337,-0.2286,0,0,0,0,0,-0.2437,-0.2434,-0.2412,-0.2419,-0.2414,-0.2394,-0.2391,-0.2377,-0.2366,-0.2361,-0.2348,-0.2339,-0.2334,-0.2332,-0.2327,-0.2335,-0.2331,-0.2341,-0.2344,-0.2347,-0.2349,-0.2353,-0.2357,-0.2314,-0.2314,-0.2314,0,0,-0.2454,-0.2439,-0.2439,-0.2425,-0.2416,-0.2413,-0.239,-0.2389,-0.2387,-0.2362,-0.2362,-0.2352,-0.234,-0.2345,-0.2346,-0.2338,-0.236,-0.235,-0.2352,-0.2352,-0.2355,-0.2359,-0.2363,-0.2315,-0.2314,-0.2314,0,0,-0.2483,-0.2472,-0.2476,-0.2466,-0.2452,-0.2438,-0.2439,-0.242,-0.2412,-0.2412,-0.2392,-0.239,-0.2383,-0.2374,-0.2369,-0.2393,-0.2379,-0.2392,-0.2412,-0.2416,-0.2419,-0.2422,-0.2431,-0.2434,-0.2394,-0.2394,-0.2394,0,-0.2507,-0.2502,-0.248,-0.248,-0.2475,-0.2449,-0.2453,-0.2445,-0.243,-0.2427,-0.2417,-0.2407,-0.2397,-0.2399,-0.2405,-0.2401,-0.2402,-0.2395,-0.242,-0.2423,-0.2425,-0.2433,-0.2437,-0.2396,-0.2396,-0.2395,-0.2395,0,-0.2531,-0.2528,-0.2533,-0.2517,-0.2512,-0.2514,-0.2493,-0.2491,-0.2477,-0.2464,-0.2464,-0.2451,-0.2442,-0.2442,-0.2429,-0.2442,-0.2437,-0.2424,-0.2408,-0.2431,-0.2439,-0.2442,-0.2398,-0.2398,-0.2397,-0.2397,0,0,-0.2583,-0.2554,-0.2556,-0.2548,-0.2529,-0.2527,-0.2527,-0.2518,-0.2516,-0.2506,-0.2506,-0.2499,-0.2487,-0.2481,-0.2467,-0.247,-0.249,-0.2456,-0.2456,-0.2463,-0.2503,-0.2514,-0.2517,-0.248,-0.248,-0.2481,-0.2504,0,-0.2609,-0.2608,-0.2588,-0.2593,-0.2589,-0.2565,-0.2565,-0.2554,-0.2541,-0.2537,-0.2523,-0.2519,-0.2503,-0.2499,-0.2501,-0.2487,-0.2498,-0.2485,-0.248,-0.248,-0.2485,-0.2521,-0.2532,-0.2555,-0.2507,-0.2507,-0.2508,0,-0.264,-0.263,-0.2634,-0.2614,-0.2612,-0.2613,-0.2602,-0.2598,-0.2584,-0.2575,-0.2567,-0.2551,-0.255,-0.2534,-0.2532,-0.2524,-0.2521,-0.2514,-0.2514,-0.2514,-0.2496,-0.2522,-0.2562,-0.2566,-0.2512,-0.2512,-0.2511,0,-0.2678,-0.2666,-0.2666,-0.266,-0.2636,-0.2637,-0.2628,-0.2613,-0.2608,-0.2599,-0.2595,-0.2586,-0.2581,-0.2575,-0.2557,-0.2546,-0.2557,-0.254,-0.255,-0.2551,-0.2554,-0.2555,-0.2595,-0.2551,-0.2551,-0.2551,-0.2551,0,-0.271,-0.2713,-0.2682,-0.2683,-0.2686,-0.2663,-0.2667,-0.2654,-0.2641,-0.2639,-0.2617,-0.2616,-0.2591,-0.2587,-0.2573,-0.2574,-0.2572,-0.2565,-0.2561,-0.2567,-0.2568,-0.2565,-0.2563,-0.2552,-0.2552,-0.2552,-0.2552,0,-0.2753,-0.2732,-0.2731,-0.2708,-0.2702,-0.2706,-0.2686,-0.2686,-0.2671,-0.2669,-0.2667,-0.2644,-0.2638,-0.2619,-0.2608,-0.2598,-0.2604,-0.2597,-0.2609,-0.2606,-0.2618,-0.2617,-0.2658,-0.2663,-0.2616,-0.2617,-0.2617,0,-0.2775,-0.2777,-0.2753,-0.275,-0.274,-0.2735,-0.273,-0.2707,-0.2702,-0.2685,-0.2687,-0.2679,-0.2671,-0.2662,-0.2646,-0.2637,-0.263,-0.2645,-0.2628,-0.2634,-0.263,-0.2631,-0.2631,-0.2649,-0.2649,-0.265,-0.265,0,-0.2816,-0.2805,-0.2798,-0.2787,-0.278,-0.277,-0.276,-0.2758,-0.2732,-0.2728,-0.2721,-0.2714,-0.2703,-0.2695,-0.2683,-0.2674,-0.2658,-0.2655,-0.2657,-0.2664,-0.2671,-0.2667,-0.2619,-0.2654,-0.2654,-0.2654,-0.2653,-0.2653,-0.285,-0.285,-0.2833,-0.2825,-0.2814,-0.2804,-0.2802,-0.2786,-0.278,-0.2768,-0.2754,-0.2749,-0.2734,-0.2717,-0.2708,-0.2704,-0.2695,-0.2698,-0.2699,-0.27,-0.2703,-0.2671,-0.2701,-0.2701,-0.2701,-0.2701,-0.2701,0,-0.289,-0.2877,-0.287,-0.2855,-0.2849,-0.2832,-0.2819,-0.2815,-0.281,-0.2797,-0.2789,-0.2781,-0.2773,-0.2755,-0.2745,-0.2745,-0.2737,-0.2743,-0.2743,-0.2741,-0.2711,-0.271,-0.2749,-0.2749,-0.2749,-0.2749,-0.2749,-0.2749,-0.291,-0.291,-0.2897,-0.289,-0.2878,-0.2871,-0.2865,-0.2855,-0.2845,-0.2836,-0.2829,-0.2816,-0.2801,-0.279,-0.2782,-0.2777,-0.2775,-0.2783,-0.2776,-0.2748,-0.2743,-0.2739,-0.2738,-0.2783,-0.2783,-0.2806,-0.2806,-0.2807]},{"header":{"parameterUnit":"m.s-1","parameterCategory":1,"la1":30.2991,"la2":30.254,"lo1":-89.0895,"lo2":-89.0444,"dy":0.0017,"dx":0.0017,"nx":28,"ny":28,"refTime":"2025-02-23T03:00:00:Z","depth":0,"parameterNumber":3,"parameterNumberName":"V-component_of_WINDS"},"data":[0,0,0,0,0,0,0,0,0,0,0,0,0,0,0,0,0,0,0,0,0,0,0,0,0,0,0,0,0,0,0,0,0,0,0,0,0,0,0,0,0,0,0,0,0,0,0,0,0,0,0,0,0,0,0,0,0,0,-2.4103,-2.4103,0,-2.4082,-2.4082,-2.4081,-2.4054,-2.4053,-2.4053,-2.4053,-2.403,-2.403,-2.403,0,0,0,0,0,0,0,0,0,0,0,0,0,-2.4121,-2.412,-2.4103,-2.4103,-2.4103,-2.4082,-2.4082,-2.4081,-2.4054,-2.4053,-2.4053,-2.4052,-2.403,-2.403,-2.403,0,0,0,0,0,0,0,0,0,0,0,0,0,-2.4108,-2.412,-2.4104,-2.4087,-2.4085,-2.4082,-2.4082,-2.4081,-2.4054,-2.4053,-2.4053,-2.4052,-2.403,-2.403,-2.403,-2.4041,0,0,-2.4029,-2.4029,0,0,0,0,0,0,0,0,-2.4108,-2.4107,-2.4089,-2.4088,-2.4086,-2.407,-2.4079,-2.4068,-2.4054,-2.4066,-2.4053,-2.4052,-2.4044,-2.4042,-2.404,-2.404,-2.4039,-2.4029,-2.4028,-2.4028,-2.4028,0,0,0,0,0,0,0,-2.4109,-2.4108,-2.4095,-2.4089,-2.4087,-2.408,-2.4078,-2.4077,-2.4059,-2.4065,-2.4063,-2.4061,-2.4043,-2.404,-2.4039,-2.4039,-2.4029,-2.4028,-2.4028,-2.4028,-2.4047,-2.4048,0,0,0,0,0,0,-2.4113,-2.4109,-2.4096,-2.4094,-2.4096,-2.408,-2.4078,-2.4076,-2.4059,-2.4055,-2.4061,-2.4059,-2.4041,-2.4039,-2.4038,-2.405,-2.4028,-2.4028,-2.4028,-2.4046,-2.4047,-2.4048,0,0,0,0,0,0,-2.4113,-2.4112,-2.4096,-2.4101,-2.4098,-2.4081,-2.4079,-2.4076,-2.4073,-2.4056,-2.4053,-2.4062,-2.404,-2.4038,-2.404,-2.4049,-2.4028,-2.4028,-2.4046,-2.4047,-2.4048,-2.4075,0,0,0,0,0,0,-2.4114,-2.4112,-2.4116,-2.4101,-2.4098,-2.4099,-2.408,-2.4076,-2.4073,-2.407,-2.4056,-2.4053,-2.404,-2.4041,-2.404,-2.4048,-2.4027,-2.4045,-2.4046,-2.4047,-2.4073,-2.4076,-2.4079,0,0,0,0,0,-2.4115,-2.4125,-2.4117,-2.4115,-2.4103,-2.41,-2.4098,-2.4083,-2.4073,-2.4077,-2.4067,-2.4053,-2.4048,-2.4042,-2.404,-2.4048,-2.4044,-2.4046,-2.4047,-2.4071,-2.4076,-2.4079,0,0,0,0,0,0,-2.4141,-2.4122,-2.4113,-2.4119,-2.4111,-2.4095,-2.41,-2.4088,-2.4083,-2.4081,-2.4062,-2.4059,-2.4063,-2.4056,-2.4049,-2.4058,-2.4044,-2.4046,-2.4063,-2.4067,-2.407,-2.4072,-2.4027,0,0,0,0,0,-2.4148,-2.4147,-2.413,-2.4137,-2.4134,-2.4118,-2.4116,-2.4105,-2.4096,-2.4092,-2.4082,-2.4074,-2.407,-2.4068,-2.4064,-2.4072,-2.4068,-2.4077,-2.408,-2.4083,-2.4084,-2.4087,-2.4091,-2.4053,-2.4053,-2.4053,0,0,-2.4161,-2.4151,-2.4151,-2.4142,-2.4135,-2.4134,-2.4115,-2.4115,-2.4114,-2.4092,-2.4094,-2.4086,-2.4075,-2.408,-2.4082,-2.4074,-2.4094,-2.4085,-2.4087,-2.4087,-2.4089,-2.4093,-2.4096,-2.4054,-2.4054,-2.4054,0,0,-2.4185,-2.4178,-2.4182,-2.4175,-2.4165,-2.4154,-2.4155,-2.4141,-2.4135,-2.4136,-2.4119,-2.4118,-2.4113,-2.4106,-2.4102,-2.4124,-2.4111,-2.4123,-2.414,-2.4143,-2.4146,-2.4149,-2.4157,-2.4159,-2.4124,-2.4125,-2.4125,0,-2.4203,-2.4202,-2.4186,-2.4187,-2.4183,-2.4164,-2.4168,-2.4162,-2.4151,-2.4149,-2.4141,-2.4133,-2.4125,-2.4128,-2.4133,-2.4131,-2.4131,-2.4124,-2.4147,-2.415,-2.4152,-2.4159,-2.4162,-2.4126,-2.4126,-2.4126,-2.4126,0,-2.4224,-2.4223,-2.4228,-2.4218,-2.4215,-2.4218,-2.4202,-2.4201,-2.4191,-2.4181,-2.4182,-2.4171,-2.4165,-2.4165,-2.4154,-2.4166,-2.4162,-2.4151,-2.4136,-2.4157,-2.4163,-2.4166,-2.4128,-2.4128,-2.4127,-2.4127,0,0,-2.4264,-2.4245,-2.4247,-2.4242,-2.4229,-2.4228,-2.423,-2.4224,-2.4223,-2.4216,-2.4217,-2.4213,-2.4203,-2.4198,-2.4187,-2.419,-2.4208,-2.4178,-2.4178,-2.4184,-2.422,-2.4228,-2.4231,-2.42,-2.42,-2.42,-2.422,0,-2.4285,-2.4287,-2.4273,-2.4279,-2.4278,-2.426,-2.4261,-2.4254,-2.4245,-2.4242,-2.4232,-2.423,-2.4216,-2.4214,-2.4216,-2.4205,-2.4215,-2.4204,-2.42,-2.42,-2.4203,-2.4234,-2.4243,-2.4262,-2.4223,-2.4223,-2.4224,0,-2.431,-2.4304,-2.431,-2.4297,-2.4296,-2.4298,-2.4291,-2.4289,-2.428,-2.4273,-2.4268,-2.4256,-2.4256,-2.4243,-2.4243,-2.4236,-2.4234,-2.4229,-2.4229,-2.4228,-2.4213,-2.4233,-2.4268,-2.4271,-2.4227,-2.4227,-2.4227,0,-2.4337,-2.4331,-2.4334,-2.4331,-2.4316,-2.4317,-2.4311,-2.4301,-2.4298,-2.4292,-2.429,-2.4285,-2.4282,-2.4277,-2.4263,-2.4255,-2.4266,-2.4251,-2.426,-2.426,-2.4262,-2.4262,-2.4297,-2.4262,-2.4262,-2.4262,-2.4262,0,-2.4362,-2.4366,-2.4346,-2.4348,-2.4352,-2.4336,-2.4341,-2.4333,-2.4324,-2.4324,-2.4308,-2.4308,-2.429,-2.4288,-2.4277,-2.4279,-2.4278,-2.4272,-2.4269,-2.4273,-2.4274,-2.4271,-2.4269,-2.4262,-2.4262,-2.4262,-2.4262,0,-2.4393,-2.438,-2.4382,-2.4368,-2.4364,-2.4368,-2.4356,-2.4357,-2.4347,-2.4347,-2.4346,-2.433,-2.4327,-2.4313,-2.4306,-2.4299,-2.4304,-2.4299,-2.4308,-2.4306,-2.4315,-2.4314,-2.4348,-2.4352,-2.4315,-2.4316,-2.4316,0,-2.441,-2.4412,-2.4399,-2.4397,-2.4392,-2.439,-2.4387,-2.4372,-2.437,-2.436,-2.4362,-2.4357,-2.4353,-2.4349,-2.4337,-2.4331,-2.4325,-2.4338,-2.4324,-2.4328,-2.4325,-2.4325,-2.4325,-2.434,-2.4341,-2.4341,-2.4342,0,-2.444,-2.4433,-2.443,-2.4425,-2.4422,-2.4417,-2.4411,-2.4411,-2.4393,-2.4392,-2.4388,-2.4385,-2.4378,-2.4374,-2.4367,-2.436,-2.4348,-2.4346,-2.4348,-2.4352,-2.4356,-2.4354,-2.4315,-2.4345,-2.4345,-2.4344,-2.4344,-2.4344,-2.4464,-2.4465,-2.4456,-2.4453,-2.4447,-2.4442,-2.4442,-2.4432,-2.4429,-2.4423,-2.4414,-2.4412,-2.4403,-2.4392,-2.4387,-2.4384,-2.4378,-2.438,-2.4381,-2.4381,-2.4383,-2.4357,-2.4383,-2.4383,-2.4383,-2.4383,-2.4383,0,-2.4493,-2.4486,-2.4483,-2.4476,-2.4473,-2.4462,-2.4455,-2.4454,-2.4452,-2.4445,-2.4441,-2.4437,-2.4433,-2.4421,-2.4416,-2.4417,-2.4411,-2.4416,-2.4415,-2.4414,-2.439,-2.4389,-2.442,-2.442,-2.442,-2.442,-2.442,-2.442,-2.4507,-2.451,-2.4502,-2.4501,-2.4495,-2.4493,-2.4489,-2.4484,-2.4479,-2.4475,-2.4472,-2.4464,-2.4455,-2.4449,-2.4445,-2.4441,-2.444,-2.4446,-2.4441,-2.4419,-2.4415,-2.4412,-2.4411,-2.4446,-2.4446,-2.4465,-2.4465,-2.4465]}]]